Location: Unspecified
(36.1222°N, 0.0000°E)
Time: 00:57:04
(UTC+00:00)

Envisat - Pass Details

Date: 24 May 2019
Orbit: 764 x 766 km, 98.1° (Epoch: 26 June)

Event Time Altitude Azimuth Distance (km) Brightness Sun altitude
Rises 19:37:23 0° 204° (SSW) 3,218 6.2 -6.4°
Reaches altitude 10° 19:40:21 10° 223° (SW) 2,297 5.6 -6.9°
Maximum altitude 19:43:50 19° 267° (W) 1,778 5.7 -7.5°
Drops below altitude 10° 19:47:21 10° 311° (NW) 2,307 7.2 -8.1°
Sets 19:50:21 0° 329° (NNW) 3,238 7.6 -8.6°
